Sugar Grove, IL

2:58 AM CDT on August 24, 2016 (GMT -0500)
Aurora Municipal

Weather History for KARR - March, 2012

Change the Weather History Date:

Saturday, March 31, 2012

  Actual Average Record
Temperature  
Mean Temperature 45 °F 43 °F  
Max Temperature 51 °F 54 °F 78 °F (2010)
Min Temperature 38 °F 32 °F 18 °F (2011)
Degree Days  
Heating Degree Days 20 22  
Month to date heating degree days 427 870  
Since 1 July heating degree days 6008  
Cooling Degree Days 0 0  
Month to date cooling degree days 24 0  
Year to date cooling degree days 24 0  
Moisture  
Dew Point 37 °F    
Average Humidity 79    
Maximum Humidity 92    
Minimum Humidity 66    
Precipitation  
Precipitation 0.00 in 0.08 in 0.62 in (2007)
Month to date precipitation 1.86 2.23  
Year to date precipitation 3.58 5.32  
Sea Level Pressure  
Sea Level Pressure 29.94 in    
Wind  
Wind Speed 8 mph (East)    
Max Wind Speed 15 mph    
Max Gust Speed 18 mph    
Visibility 8 miles    
Events      
T = Trace of Precipitation, MM = Missing Value Source: NWS Daily Summary

Daily Weather History Graph

Daily Weather History Graph

Search for Another Location

Airport or City:

Trip Planner

Search our weather history database for the weather conditions in past years. The results will help you decide how hot, cold, wet, or windy it might be!

Date:

Astronomy

Mar. 31, 2012 Rise Set
Actual Time 6:37 AM CDT 7:18 PM CDT
Civil Twilight 6:09 AM CDT 7:46 PM CDT
Nautical Twilight 5:36 AM CDT 8:20 PM CDT
Astronomical Twilight 5:02 AM CDT 8:54 PM CDT
Moon 12:41 PM CDT (3/31) 2:39 AM CDT (3/31)
Length of Visible Light 13h 37m
Length of Day
12h 41m
First Quarter, 59% of the Moon is Illuminated
Mar 31
First Quarter
Apr 6
Full
Apr 13
Last Quarter
Apr 21
New
Apr 29
First Quarter

Hourly Weather History & Observations

Time (CDT) Temp. Windchill Dew Point Humidity Pressure Visibility Wind Dir Wind Speed Gust Speed Precip Events Conditions
12:52 AM 39.9 °F 33.4 °F 36.0 °F 86% 29.95 in 10.0 mi NE 10.4 mph - N/A   Overcast
1:52 AM 39.0 °F 31.8 °F 36.0 °F 89% 29.95 in 10.0 mi NE 11.5 mph - N/A   Overcast
2:52 AM 39.0 °F 32.3 °F 35.1 °F 86% 29.97 in 9.0 mi ENE 10.4 mph - N/A   Overcast
3:52 AM 39.0 °F 34.0 °F 35.1 °F 86% 29.96 in 9.0 mi East 6.9 mph - N/A   Overcast
4:24 AM 39.2 °F 35.9 °F 35.6 °F 87% 29.96 in 9.0 mi ENE 4.6 mph - N/A   Overcast
4:52 AM 39.0 °F 36.8 °F 35.1 °F 86% 29.99 in 8.0 mi ENE 3.5 mph - N/A   Overcast
5:52 AM 37.9 °F 31.5 °F 35.1 °F 89% 29.97 in 8.0 mi ENE 9.2 mph - N/A   Overcast
6:52 AM 37.9 °F 31.5 °F 34.0 °F 86% 29.99 in 10.0 mi ENE 9.2 mph - N/A   Overcast
7:52 AM 37.9 °F 33.5 °F 34.0 °F 86% 29.99 in 9.0 mi ENE 5.8 mph - N/A   Overcast
8:52 AM 37.9 °F 30.9 °F 35.1 °F 89% 29.99 in 7.0 mi ENE 10.4 mph - N/A   Overcast
9:52 AM 39.9 °F 35.1 °F 35.1 °F 83% 30.00 in 8.0 mi ESE 6.9 mph - N/A   Overcast
10:52 AM 41.0 °F 36.4 °F 36.0 °F 82% 30.01 in 6.0 mi ENE 6.9 mph - N/A   Haze
11:52 AM 42.1 °F 37.7 °F 36.0 °F 79% 29.99 in 6.0 mi SE 6.9 mph - N/A   Haze
12:42 PM 44.6 °F 42.2 °F 35.6 °F 71% 29.97 in 7.0 mi ESE 4.6 mph - N/A   Overcast
12:52 PM 45.0 °F - 36.0 °F 71% 29.98 in 7.0 mi Calm Calm - N/A   Overcast
1:52 PM 48.9 °F - 39.0 °F 69% 29.95 in 7.0 mi SE 6.9 mph - N/A   Mostly Cloudy
2:52 PM 48.9 °F - 39.0 °F 69% 29.93 in 6.0 mi East 9.2 mph - N/A   Haze
3:52 PM 48.9 °F - 39.0 °F 69% 29.92 in 7.0 mi ESE 8.1 mph - N/A   Clear
4:52 PM 50.0 °F - 39.0 °F 66% 29.91 in 7.0 mi ESE 9.2 mph - N/A   Partly Cloudy
5:52 PM 50.0 °F - 39.0 °F 66% 29.90 in 7.0 mi East 6.9 mph - N/A   Partly Cloudy
6:52 PM 48.9 °F - 39.9 °F 71% 29.88 in 7.0 mi ESE 10.4 mph - N/A   Mostly Cloudy
7:52 PM 48.9 °F - 41.0 °F 74% 29.87 in 9.0 mi SE 9.2 mph - N/A   Overcast
8:52 PM 48.9 °F - 39.9 °F 71% 29.87 in 8.0 mi ESE 6.9 mph - N/A   Mostly Cloudy
9:52 PM 48.0 °F - 41.0 °F 77% 29.87 in 7.0 mi East 6.9 mph - N/A   Mostly Cloudy
10:52 PM 46.9 °F - 39.9 °F 77% 29.84 in 7.0 mi ESE 9.2 mph - N/A   Overcast
11:52 PM 46.9 °F - 41.0 °F 80% 29.82 in 7.0 mi ESE 8.1 mph - N/A   Mostly Cloudy